• Join FlightAware (Why Join?)
  • Login
  • US Flag 
04:05PM EDT


 

Airport Tracker/Info


-or-


 

Live Flight TrackerFlight Track Log ✈ N777NC ✈ 08-Jul-2013 ✈ KATL - KAVL

Flight Track Log - Related Links

Times and Time Zones

All times are in EDT time to prevent confusion due to time zone crossing. See the N777NC flight status page for this flight to view local times or setup timezone preferences in your user account.

Time Position Orientation Groundspeed Altitude Reporting Facility
EDT Latitude Longitude Course Direction KTS MPH feet Rate Location/Type
09:48PM 33.6500 -84.4667 24° Northeast 180 207 2,400  Level Atlanta TRACON
09:49PM 33.6667 -84.5333 287° West 268 308 4,200 2,520 Climbing Atlanta TRACON
09:50PM 33.7000 -84.6167 296° West 288 331 7,200 2,280 Climbing Atlanta TRACON
09:51PM 34.0312 -84.3297 12° North  Level FlightAware Approximate
09:51PM 33.8325 -84.6089 North 324 373 10,100  Level Atlanta Center
09:52PM 34.1290 -84.3101 North  Level FlightAware Approximate
09:52PM 33.9331 -84.5744 16° North 354 407 12,300  Level Atlanta Center
09:53PM 34.2267 -84.2856 24° Northeast  Level FlightAware Approximate
09:53PM 34.0375 -84.5375 16° North 366 421 14,600  Level Atlanta Center
09:54PM 34.1275 -84.4756 30° Northeast 359 413 16,800 2,040 Climbing Atlanta Center
09:55PM 34.2400 -84.4936 352° North 383 441 18,700 1,800 Climbing Atlanta Center
09:56PM 34.3464 -84.5269 345° North 388 447 20,500 420 Climbing Atlanta Center
09:57PM 34.4528 -84.5703 341° North 399 459 19,600 -900 Descending Atlanta Center
09:58PM 34.5589 -84.6064 344° North 400 460 18,800 -720 Descending Atlanta Center
09:59PM 34.6528 -84.6322 347° North 389 448 18,200 -420 Descending Atlanta Center
10:00PM 34.7653 -84.6683 345° North 384 442 18,000 -60 Descending Atlanta Center
10:01PM 34.8717 -84.6742 357° North 379 436 18,100 480 Climbing Atlanta Center
10:02PM 34.9492 -84.5736 47° Northeast 349 402 19,000 420 Climbing Atlanta Center
10:03PM 34.9792 -84.4367 75° East 351 404 19,000  Level Atlanta Center
10:04PM 35.0147 -84.3075 71° East 372 428 19,000  Level Atlanta Center
10:05PM 35.0442 -84.1758 75° East 387 445 19,000  Level Atlanta Center
10:06PM 35.0736 -84.0464 74° East 387 445 19,000  Level Atlanta Center
10:07PM 35.1047 -83.9169 74° East 392 451 19,000  Level Atlanta Center
10:08PM 35.1339 -83.7872 75° East 397 457 19,000 -120 Level Atlanta Center
10:09PM 35.1522 -83.6678 79° East 386 444 18,800 -1,020 Descending Atlanta Center
10:10PM 35.1706 -83.5586 78° East 351 404 17,000 -1,860 Descending Atlanta Center
10:11PM 35.1744 -83.4594 87° East 333 383 15,100 -1,920 Descending Atlanta Center
10:12PM 35.1864 -83.3500 82° East 325 374 13,200 -1,860 Descending Atlanta Center
10:13PM 35.2108 -83.2356 75° East 317 365 11,400 -1,140 Descending Atlanta Center
10:14PM 35.2392 -83.1386 70° East 310 357 11,000 -240 Descending Atlanta Center
10:15PM 35.2447 -83.0419 86° East 296 341 11,000 -420 Level Atlanta Center
10:16PM 35.2419 -82.9403 92° East 291 335 10,200 -1,020 Descending Atlanta Center
10:17PM 35.2347 -82.8564 96° East 284 327 9,000 4,380 Descending Atlanta Center
10:18PM 35.2339 -82.7597 91° East 284 327 19,000 -1,500 Climbing Atlanta Center
10:19PM 35.2347 -82.6631 89° East 279 321 6,100 -6,900 Descending Atlanta Center
10:20PM 35.2361 -82.5792 89° East 261 300 5,300 -540 Descending Atlanta Center
10:21PM 35.2369 -82.4800 89° East 261 300 5,100 6,840 Descending Atlanta Center
10:22PM 35.2356 -82.3911 91° East 261 300 19,000 13,860 Climbing Atlanta Center